K4AXV-13 Weather Reports


time (UTC)temp
F
wind
direction
speed
knots
gust
knots
rain 1hr
in
rain 24hr
in
rain mn
in
humidity
%
barometer
mb
20260506160048 86 305 2.6 4.3 0.00 0.00 0.00
20260506155546 86 342 5.2 3.5 0.00 0.00 0.00
20260506155047 86 291 2.6 1.7 0.00 0.00 0.00
20260506154545 85 305 3.5 4.3 0.00 0.00 0.00
20260506153543 83 239 0.0 0.0 0.00 0.00 0.00
20260506152542 82 352 1.7 0.0 0.00 0.00 0.00
20260506152043 81 4 3.5 2.6 0.00 0.00 0.00
20260506151042 80 347 1.7 4.3 0.00 0.00 0.00
20260506150042 79 314 3.5 1.7 0.00 0.00 0.00
20260506145727 78 319 2.6 2.6 0.00 0.00 0.00
20260506145042 78 319 2.6 2.6 0.00 0.00 0.00
20260506144129 77 335 2.6 2.6 0.00 0.00 0.00
20260506144041 77 243 0.0 0.0 0.00 0.00 0.00
20260506143543 76 326 2.6 4.3 0.00 0.00 0.00
20260506143540 77 335 2.6 2.6 0.00 0.00 0.00
20260506143041 76 326 2.6 4.3 0.00 0.00 0.00
20260506142539 76 315 4.3 1.7 0.00 0.00 0.00
20260506142447 76 291 0.0 0.0 0.00 0.00 0.00
20260506142041 76 291 0.0 0.0 0.00 0.00 0.00
20260506141904 76 308 1.7 0.0 0.00 0.00 0.00
20260506141539 76 308 1.7 0.0 0.00 0.00 0.00
20260506141414 75 270 1.7 3.5 0.00 0.00 0.00
20260506141040 75 270 1.7 3.5 0.00 0.00 0.00
20260506140734 75 312 1.7 2.6 0.00 0.00 0.00
20260506140638 75 312 1.7 2.6 0.00 0.00 0.00
20260506140538 75 312 1.7 2.6 0.00 0.00 0.00
20260506140300 75 283 2.6 0.9 0.00 0.00 0.00
20260506140038 75 283 2.6 0.9 0.00 0.00 0.00
20260506135247 74 300 0.9 0.0 0.00 0.00 0.00
20260506135037 74 300 0.9 0.0 0.00 0.00 0.00
20260506134628 74 239 2.6 2.6 0.00 0.00 0.00
20260506134535 74 239 2.6 2.6 0.00 0.00 0.00
20260506134157 73 262 1.7 2.6 0.00 0.00 0.00
20260506134035 73 262 1.7 2.6 0.00 0.00 0.00
20260506133127 72 269 0.9 2.6 0.00 0.00 0.00
20260506133034 72 269 0.9 2.6 0.00 0.00 0.00
20260506130542 71 293 0.0 1.7 0.00 0.00 0.00
20260506130127 71 293 0.0 1.7 0.00 0.00 0.00
20260506130033 71 293 0.0 1.7 0.00 0.00 0.00
20260506125639 70 325 0.9 3.5 0.00 0.00 0.00
20260506125602 70 325 0.9 3.5 0.00 0.00 0.00
20260506125530 70 325 0.9 3.5 0.00 0.00 0.00
20260506125136 70 319 0.9 0.9 0.00 0.00 0.00
20260506125031 70 319 0.9 0.9 0.00 0.00 0.00
20260506124626 70 224 0.0 0.0 0.00 0.00 0.00
20260506124530 70 224 0.0 0.0 0.00 0.00 0.00
20260506124130 70 224 0.9 0.0 0.00 0.00 0.00
20260506124032 70 224 0.9 0.0 0.00 0.00 0.00
20260506122610 68 246 0.0 0.0 0.00 0.00 0.00
20260506122528 68 246 0.0 0.0 0.00 0.00 0.00
20260506122119 68 246 0.0 0.0 0.00 0.00 0.00
20260506122030 68 246 0.0 0.0 0.00 0.00 0.00
20260506121528 68 304 1.7 0.9 0.00 0.00 0.00
20260506121115 66 219 0.0 0.0 0.00 0.00 0.00
20260506121030 66 219 0.0 0.0 0.00 0.00 0.00
20260506120527 64 219 0.0 0.0 0.00 0.00 0.00
20260506120127 63 219 0.0 0.0 0.00 0.00 0.00
20260506120026 63 219 0.0 0.0 0.00 0.00 0.00
20260506115631 62 219 0.0 0.0 0.00 0.00 0.00
20260506115526 62 219 0.0 0.0 0.00 0.00 0.00
20260506114109 61 13 0.0 0.0 0.00 0.00 0.00
20260506114025 61 13 0.0 0.0 0.00 0.00 0.00
20260506113523 60 13 0.0 0.0 0.00 0.00 0.00
20260506113127 60 13 0.0 0.0 0.00 0.00 0.00
20260506113024 60 13 0.0 0.0 0.00 0.00 0.00
20260506112523 60 13 0.0 0.0 0.00 0.00 0.00
20260506112144 60 13 0.0 0.0 0.00 0.00 0.00
20260506112025 60 13 0.0 0.0 0.00 0.00 0.00
20260506111604 60 13 0.0 0.0 0.00 0.00 0.00
20260506111522 60 13 0.0 0.0 0.00 0.00 0.00
20260506111103 60 13 0.0 0.0 0.00 0.00 0.00
20260506111024 60 13 0.0 0.0 0.00 0.00 0.00
20260506110125 58 13 0.0 0.0 0.00 0.00 0.00
20260506110023 58 13 0.0 0.0 0.00 0.00 0.00
20260506105604 59 13 0.0 0.0 0.00 0.00 0.00
20260506105520 59 13 0.0 0.0 0.00 0.00 0.00
20260506105114 58 13 0.0 0.0 0.00 0.00 0.00
20260506105021 58 13 0.0 0.0 0.00 0.00 0.00
20260506104616 58 13 0.0 0.0 0.00 0.00 0.00
20260506104516 58 13 0.0 0.0 0.00 0.00 0.00
20260506103516 57 13 0.0 0.0 0.00 0.00 0.00
20260506103115 57 13 0.0 0.0 0.00 0.00 0.00
20260506103017 57 13 0.0 0.0 0.00 0.00 0.00
20260506102504 58 13 0.0 0.0 0.00 0.00 0.00
20260506102013 58 13 0.0 0.0 0.00 0.00 0.00
20260506101512 58 13 0.0 0.0 0.00 0.00 0.00
20260506101013 58 13 0.0 0.0 0.00 0.00 0.00
20260506100012 57 13 0.0 0.0 0.00 0.00 0.00
20260506095011 58 13 0.0 0.0 0.00 0.00 0.00
20260506094509 58 13 0.0 0.0 0.00 0.00 0.00
20260506094045 58 13 0.0 0.0 0.00 0.00 0.00
20260506094011 58 13 0.0 0.0 0.00 0.00 0.00
20260506093509 58 13 0.0 0.0 0.00 0.00 0.00
20260506093010 58 13 0.0 0.0 0.00 0.00 0.00
20260506092509 57 13 0.0 0.0 0.00 0.00 0.00
20260506092010 57 13 0.0 0.0 0.00 0.00 0.00
20260506091506 58 13 0.0 0.0 0.00 0.00 0.00
20260506090506 58 13 0.0 0.0 0.00 0.00 0.00
20260506085505 58 13 0.0 0.0 0.00 0.00 0.00
20260506085007 58 13 0.0 0.0 0.00 0.00 0.00
20260506084006 58 13 0.0 0.0 0.00 0.00 0.00
20260506083005 58 13 0.0 0.0 0.00 0.00 0.00
20260506082504 58 13 0.0 0.0 0.00 0.00 0.00
20260506081502 58 13 0.0 0.0 0.00 0.00 0.00
20260506073459 57 13 0.0 0.0 0.00 0.00 0.00
20260506073000 58 13 0.0 0.0 0.00 0.00 0.00
20260506072459 58 13 0.0 0.0 0.00 0.00 0.00
20260506072000 57 13 0.0 0.0 0.00 0.00 0.00
20260506070458 58 13 0.0 0.0 0.00 0.00 0.00
20260506062453 59 13 0.0 0.0 0.00 0.00 0.00
20260506061953 58 13 0.0 0.0 0.00 0.00 0.00
20260506061451 58 13 0.0 0.0 0.00 0.00 0.00
20260506060953 58 13 0.0 0.0 0.00 0.00 0.00
20260506060451 58 13 0.0 0.0 0.00 0.00 0.00
20260506051351 59 13 0.0 0.0 0.00 0.00 0.00
20260506051025 59 13 0.0 0.0 0.00 0.00 0.00
20260506050950 59 13 0.0 0.0 0.00 0.00 0.00
20260506050448 59 13 0.0 0.0 0.00 0.00 0.00
20260506044949 59 13 0.0 0.0 0.00 0.00 0.00
20260506044541 59 13 0.0 0.0 0.00 0.00 0.00
20260506044447 59 13 0.0 0.0 0.00 0.00 0.00
20260506043948 60 13 0.0 0.0 0.00 0.00 0.00
20260506043446 60 13 0.0 0.0 0.00 0.00 0.00
20260506042948 59 13 0.0 0.0 0.00 0.00 0.00
20260506042446 59 13 0.0 0.0 0.00 0.00 0.00
20260506041947 60 13 0.0 0.0 0.00 0.00 0.00
20260506041445 60 13 0.0 0.0 0.00 0.00 0.00
20260506040947 60 13 0.0 0.0 0.00 0.00 0.00
20260506040445 60 13 0.0 0.0 0.00 0.00 0.00
20260506035946 60 13 0.0 0.0 0.00 0.00 0.00
20260506035444 61 13 0.0 0.0 0.00 0.00 0.00
20260506034945 60 13 0.0 0.0 0.00 0.00 0.00
20260506034515 61 13 0.0 0.0 0.00 0.00 0.00
20260506034443 61 13 0.0 0.0 0.00 0.00 0.00
20260506033944 61 13 0.0 0.0 0.00 0.00 0.00
20260506033443 61 13 0.0 0.0 0.00 0.00 0.00
20260506032944 60 13 0.0 0.0 0.00 0.00 0.00
20260506032442 61 13 0.0 0.0 0.00 0.00 0.00
20260506031943 61 13 0.0 0.0 0.00 0.00 0.00
20260506031442 61 13 0.0 0.0 0.00 0.00 0.00
20260506030943 61 13 0.0 0.0 0.00 0.00 0.00
20260506030441 62 13 0.0 0.0 0.00 0.00 0.00
20260506025942 62 13 0.0 0.0 0.00 0.00 0.00
20260506025440 62 13 0.0 0.0 0.00 0.00 0.00
20260506024941 62 13 0.0 0.0 0.00 0.00 0.00
20260506024439 63 13 0.0 0.0 0.00 0.00 0.00
20260506023941 63 13 0.0 0.0 0.00 0.00 0.00
20260506023439 63 13 0.0 0.0 0.00 0.00 0.00
20260506022940 63 13 0.0 0.0 0.00 0.00 0.00
20260506022438 64 13 0.0 0.0 0.00 0.00 0.00
20260506021939 64 13 0.0 0.0 0.00 0.00 0.00
20260506021437 64 13 0.0 0.0 0.00 0.00 0.00
20260506020938 64 13 0.0 0.0 0.00 0.00 0.00
20260506020436 64 13 0.0 0.0 0.00 0.00 0.00
20260506015433 65 13 0.0 0.0 0.00 0.00 0.00
20260506014934 65 13 0.0 0.0 0.00 0.00 0.00
20260506014432 65 13 0.0 0.0 0.00 0.00 0.00
20260506013934 65 13 0.0 0.0 0.00 0.00 0.00
20260506012933 66 13 0.0 0.0 0.00 0.00 0.00
20260506012431 66 13 0.0 0.0 0.00 0.00 0.00
20260506012118 66 13 0.0 0.0 0.00 0.00 0.00
20260506011932 66 13 0.0 0.0 0.00 0.00 0.00
20260506011430 66 13 0.0 0.0 0.00 0.00 0.00
20260506010931 67 13 0.0 0.0 0.00 0.00 0.00
20260506010525 67 13 0.0 0.0 0.00 0.00 0.00
20260506010430 67 13 0.0 0.0 0.00 0.00 0.00
20260506005931 67 13 0.0 0.0 0.00 0.00 0.00
20260506005538 68 13 0.0 0.0 0.00 0.00 0.00
20260506005429 68 13 0.0 0.0 0.00 0.00 0.00
20260506004930 68 13 0.0 0.0 0.00 0.00 0.00
20260506003930 68 13 0.0 0.0 0.00 0.00 0.00
20260506003428 68 13 0.0 0.0 0.00 0.00 0.00
20260506002929 69 13 0.0 0.0 0.00 0.00 0.00
20260506002427 69 13 0.0 0.0 0.00 0.00 0.00
20260506001928 69 13 0.0 0.0 0.00 0.00 0.00
20260506001427 70 13 0.0 0.0 0.00 0.00 0.00
20260506000928 70 42 0.0 0.0 0.00 0.00 0.00
20260506000426 70 226 0.0 0.0 0.00 0.00 0.00
20260505235927 70 187 2.6 0.0 0.00 0.00 0.00
20260505235558 71 343 0.0 0.0 0.00 0.00 0.00
20260505235425 71 343 0.0 0.0 0.00 0.00 0.00
20260505234927 70 343 1.7 0.0 0.00 0.00 0.00
20260505234425 71 13 0.0 1.7 0.00 0.00 0.00
20260505234128 71 122 1.7 3.5 0.00 0.00 0.00
20260505233926 71 122 1.7 3.5 0.00 0.00 0.00
20260505233424 71 314 2.6 2.6 0.00 0.00 0.00
20260505232424 71 283 0.9 0.0 0.00 0.00 0.00
20260505224421 73 11 0.9 2.6 0.00 0.00 0.00
20260505223420 73 89 0.9 3.5 0.00 0.00 0.00
20260505221921 73 226 2.6 0.0 0.00 0.00 0.00
20260505220419 74 309 0.9 2.6 0.00 0.00 0.00
20260505213917 74 167 2.6 2.6 0.00 0.00 0.00
20260505212415 76 143 2.6 0.9 0.00 0.00 0.00
20260505202913 76 118 6.1 4.3 0.00 0.00 0.00
20260505201913 77 301 2.6 7.0 0.00 0.00 0.00
20260505201411 78 98 3.5 2.6 0.00 0.00 0.00